Voltar ao catálogo

CZ-6A DEB

AtivoPO
NORAD 61456·DEBRIS·🇨🇳 China

Lançado Aug 6, 2024 de Taiyuan Satellite Launch Center

Loading…

Próximas Passagens (próximas 24 horas)

TLE

AtualizadoSource: Space-Track

Época: Sep 14, 2026, 11:10 UTC

1 61456U 24140ZN  26257.46554272  .00002599  00000-0  49923-3 0  9995
2 61456  89.1030 269.5739 0097425 306.8258  52.4047 14.60404587106070

Acompanhe CZ-6A DEB em tempo real com AllMySat

Download on the App Store